Mt. Pocono, PA

4:49 AM EDT on April 27, 2017 (GMT -0400)
Pocono Mountains Municipal

Weather History for KMPO - September, 2013

Change the Weather History Date:

Thursday, September 5, 2013

  Actual Average Record
Temperature  
Mean Temperature 58 °F 63 °F  
Max Temperature 67 °F 72 °F 85 °F (1983)
Min Temperature 48 °F 54 °F 34 °F (1906)
Degree Days  
Heating Degree Days 7 3  
Month to date heating degree days 7 15  
Since 1 July heating degree days 71 78  
Cooling Degree Days 0 1  
Month to date cooling degree days 14 5  
Year to date cooling degree days 433 301  
Growing Degree Days 10 (Base 50)    
Moisture  
Dew Point 48 °F    
Average Humidity 62    
Maximum Humidity 86    
Minimum Humidity 37    
Precipitation  
Precipitation 0.00 in 0.14 in 1.82 in (1953)
Month to date precipitation 0.47 0.74  
Year to date precipitation 36.12 31.72  
Sea Level Pressure  
Sea Level Pressure 30.06 in    
Wind  
Wind Speed 9 mph (NW)    
Max Wind Speed 17 mph    
Max Gust Speed 24 mph    
Visibility 10 miles    
Events      
T = Trace of Precipitation, MM = Missing Value Source: NWS Daily Summary

Daily Weather History Graph

Daily Weather History Graph

Search for Another Location

Airport or City:

Trip Planner

Search our weather history database for the weather conditions in past years. The results will help you decide how hot, cold, wet, or windy it might be!

Date:

Astronomy

Sep. 05, 2013 Rise Set
Actual Time 6:32 AM EDT 7:27 PM EDT
Civil Twilight 6:04 AM EDT 7:55 PM EDT
Nautical Twilight 5:30 AM EDT 8:28 PM EDT
Astronomical Twilight 4:56 AM EDT 9:03 PM EDT
Moon 6:42 AM EDT (9/5) 7:16 PM EDT (9/5)
Length of Visible Light 13h 51m
Length of Day
12h 54m
New Moon, 0% of the Moon is Illuminated
Sep 5
New Moon
Sep 12
First Quarter
Sep 19
Full
Sep 26
Last Quarter
Oct 4
New

Hourly Weather History & Observations

Time (EDT) Temp. Dew Point Humidity Pressure Visibility Wind Dir Wind Speed Gust Speed Precip Events Conditions
12:53 AM 59.0 °F 54.0 °F 83% 30.01 in 10.0 mi West 6.9 mph - N/A   Clear
1:53 AM 57.9 °F 53.1 °F 84% 29.99 in 10.0 mi WNW 6.9 mph - N/A   Clear
2:53 AM 60.1 °F 54.0 °F 80% 29.98 in 10.0 mi WNW 10.4 mph - N/A   Clear
3:53 AM 60.1 °F 54.0 °F 80% 29.97 in 10.0 mi WNW 12.7 mph - N/A   Clear
4:53 AM 60.1 °F 54.0 °F 80% 29.97 in 10.0 mi WNW 11.5 mph - N/A   Partly Cloudy
5:53 AM 59.0 °F 54.0 °F 83% 29.98 in 10.0 mi West 10.4 mph - N/A   Clear
6:53 AM 57.9 °F 54.0 °F 87% 29.99 in 10.0 mi WNW 8.1 mph - N/A   Clear
7:53 AM 62.1 °F 54.0 °F 75% 30.02 in 10.0 mi WNW 11.5 mph - N/A   Scattered Clouds
8:46 AM 62.6 °F 55.4 °F 77% 30.03 in 10.0 mi NW 13.8 mph 21.9 mph N/A   Mostly Cloudy
8:53 AM 62.1 °F 55.9 °F 80% 30.01 in 10.0 mi NW 10.4 mph 21.9 mph N/A   Mostly Cloudy
9:53 AM 61.0 °F 54.0 °F 78% 30.03 in 10.0 mi NNW 11.5 mph 18.4 mph N/A   Overcast
10:18 AM 62.6 °F 50.0 °F 63% 30.05 in 10.0 mi NNW 13.8 mph 20.7 mph N/A   Mostly Cloudy
10:26 AM 62.6 °F 48.2 °F 59% 30.05 in 10.0 mi NW 10.4 mph 24.2 mph N/A   Partly Cloudy
10:53 AM 64.0 °F 50.0 °F 60% 30.05 in 10.0 mi NNW 15.0 mph 20.7 mph N/A   Scattered Clouds
11:53 AM 64.9 °F 48.0 °F 54% 30.05 in 10.0 mi NNW 11.5 mph 21.9 mph N/A   Clear
12:53 PM 64.9 °F 42.1 °F 43% 30.06 in 10.0 mi North 11.5 mph 18.4 mph N/A   Clear
1:53 PM 64.9 °F 42.1 °F 43% 30.07 in 10.0 mi North 10.4 mph 20.7 mph N/A   Clear
2:53 PM 66.9 °F 39.0 °F 36% 30.07 in 10.0 mi NW 9.2 mph 21.9 mph N/A   Clear
3:53 PM 66.0 °F 41.0 °F 40% 30.07 in 10.0 mi NW 16.1 mph 21.9 mph N/A   Partly Cloudy
4:53 PM 64.9 °F 41.0 °F 42% 30.08 in 10.0 mi NW 9.2 mph 18.4 mph N/A   Partly Cloudy
5:53 PM 64.0 °F 42.1 °F 45% 30.09 in 10.0 mi WNW 9.2 mph - N/A   Partly Cloudy
6:53 PM 62.1 °F 43.0 °F 50% 30.10 in 10.0 mi NW 5.8 mph - N/A   Clear
7:53 PM 57.0 °F 43.0 °F 59% 30.12 in 10.0 mi Calm Calm - N/A   Clear
8:53 PM 55.0 °F 45.0 °F 69% 30.14 in 10.0 mi North 6.9 mph - N/A   Clear
9:53 PM 54.0 °F 43.0 °F 66% 30.17 in 10.0 mi North 6.9 mph - N/A   Clear
10:53 PM 53.1 °F 41.0 °F 64% 30.19 in 10.0 mi North 4.6 mph - N/A   Clear
11:53 PM 50.0 °F 39.9 °F 68% 30.20 in 10.0 mi North 6.9 mph - N/A   Clear